[[{"header":{"parameterUnit":"m.s-1","parameterCategory":2,"la1":30.2991,"la2":30.254,"lo1":-89.0895,"lo2":-89.0444,"dy":0.0017,"dx":0.0017,"nx":28,"ny":28,"refTime":"2024-03-01T09:00:00:Z","depth":"0","parameterNumber":2,"parameterNumberName":"U-component_of_CURRENTS"},"data":[0,0,0,0,0,0,0,0,0,0,0,0,0,0,0,0,0,0,0,0,0,0,0,0,0,0,0,0,0,0,0,0,0,0,0,0,0,0,0,0,0,0,0,0,0,0,0,0,0,0,0,0,0,0,0,0,0,0,0.3895,0.3896,0,0.3944,0.3944,0.3945,0.3964,0.3965,0.3965,0.3965,0.3985,0.3985,0.3985,0,0,0,0,0,0,0,0,0,0,0,0,0,0.3819,0.382,0.3895,0.3896,0.3897,0.3944,0.3944,0.3945,0.3964,0.3965,0.3965,0.3965,0.3984,0.3985,0.3985,0,0,0,0,0,0,0,0,0,0,0,0,0,0.3854,0.382,0.3895,0.3916,0.3919,0.3944,0.3944,0.3945,0.3964,0.3965,0.3965,0.3966,0.3984,0.3985,0.3985,0.3978,0,0,0.3986,0.3986,0,0,0,0,0,0,0,0,0.3852,0.3856,0.3912,0.3915,0.3918,0.3953,0.3925,0.3956,0.3964,0.3942,0.3965,0.3966,0.3974,0.3975,0.3977,0.3978,0.3979,0.3986,0.3986,0.3986,0.3986,0,0,0,0,0,0,0,0.385,0.3854,0.391,0.3913,0.3917,0.3924,0.3929,0.3931,0.395,0.3944,0.3947,0.396,0.3975,0.3977,0.3978,0.398,0.3986,0.3986,0.3987,0.3987,0.4014,0.4015,0,0,0,0,0,0,0.3853,0.3852,0.3908,0.3912,0.3891,0.3925,0.3931,0.3937,0.3951,0.3955,0.3959,0.396,0.3976,0.3977,0.3978,0.3996,0.3986,0.3987,0.3987,0.4014,0.4015,0.4015,0,0,0,0,0,0,0.3851,0.3857,0.3906,0.3887,0.3894,0.3927,0.3934,0.3938,0.3948,0.3964,0.3967,0.3966,0.3976,0.3978,0.3992,0.3996,0.3987,0.3987,0.4013,0.4014,0.4015,0.4015,0,0,0,0,0,0,0.3848,0.3855,0.385,0.3887,0.3896,0.3914,0.3934,0.3939,0.3957,0.3959,0.397,0.3972,0.3977,0.3992,0.3992,0.3997,0.3987,0.4013,0.4014,0.4015,0.4015,0.4016,0.4017,0,0,0,0,0,0.3845,0.3837,0.3849,0.3856,0.3891,0.3914,0.3918,0.394,0.3957,0.3952,0.3974,0.3972,0.3999,0.3992,0.3993,0.3997,0.4012,0.4013,0.4015,0.4014,0.4016,0.4017,0,0,0,0,0,0,0.3797,0.384,0.3854,0.3858,0.3883,0.3919,0.3921,0.3942,0.3955,0.3959,0.3977,0.398,0.3995,0.3997,0.399,0.401,0.4006,0.4007,0.4005,0.4007,0.4008,0.4008,0.3988,0,0,0,0,0,0.3787,0.3794,0.3835,0.3838,0.3852,0.3888,0.3899,0.3916,0.3941,0.3948,0.3961,0.3979,0.3999,0.4004,0.4014,0.4021,0.4034,0.4025,0.4027,0.4028,0.403,0.4056,0.406,0.4019,0.4019,0.4019,0,0,0.3774,0.3795,0.3802,0.3829,0.3852,0.3873,0.3894,0.3912,0.3932,0.3947,0.3967,0.3981,0.4003,0.4016,0.4022,0.4019,0.4048,0.4029,0.403,0.4031,0.4058,0.4062,0.4066,0.402,0.402,0.402,0,0,0.3749,0.3768,0.3767,0.3791,0.3825,0.3853,0.3861,0.3897,0.3913,0.3934,0.3959,0.3978,0.3997,0.4017,0.4032,0.4045,0.4055,0.4048,0.4053,0.4078,0.4082,0.4085,0.4112,0.4118,0.4047,0.4047,0.4047,0,0.3731,0.3734,0.3769,0.3778,0.3799,0.3848,0.3857,0.3887,0.3921,0.3938,0.3938,0.3988,0.3999,0.4038,0.4045,0.4047,0.4066,0.4043,0.408,0.4083,0.4087,0.4113,0.412,0.4048,0.4048,0.4048,0.4048,0,0.3707,0.3717,0.3721,0.3756,0.378,0.3793,0.385,0.3871,0.39,0.3932,0.3966,0.3986,0.4018,0.4024,0.404,0.4074,0.4082,0.4079,0.4074,0.4091,0.4118,0.4124,0.4048,0.4048,0.4048,0.4048,0,0,0.3651,0.3695,0.3695,0.3706,0.3767,0.3783,0.383,0.3877,0.3911,0.3939,0.3976,0.4009,0.4027,0.4045,0.4065,0.4085,0.4124,0.4092,0.4094,0.4116,0.4188,0.4145,0.4148,0.413,0.4131,0.4132,0.4199,0,0.3619,0.3622,0.3659,0.3678,0.3689,0.3756,0.3795,0.385,0.3901,0.3949,0.3991,0.4031,0.4037,0.4053,0.4077,0.4127,0.4141,0.4106,0.4171,0.4173,0.413,0.4154,0.4048,0.4095,0.4205,0.4206,0.4207,0,0.3573,0.3586,0.3587,0.3638,0.365,0.3678,0.375,0.3794,0.3892,0.3931,0.3989,0.4033,0.4096,0.4081,0.4165,0.4147,0.4162,0.4183,0.4187,0.415,0.4142,0.4096,0.4103,0.4019,0.4217,0.4216,0.4216,0,0.3496,0.3532,0.3526,0.3545,0.3616,0.3636,0.3687,0.3782,0.3828,0.3932,0.3986,0.4054,0.4113,0.4145,0.4211,0.4191,0.4293,0.427,0.4239,0.4237,0.416,0.4149,0.4088,0.4296,0.4295,0.4295,0.4295,0,0.3437,0.3432,0.3491,0.3491,0.3508,0.3582,0.3619,0.3693,0.3795,0.3864,0.3975,0.4039,0.4133,0.4211,0.423,0.4275,0.4313,0.4246,0.4252,0.4158,0.4146,0.4079,0.4043,0.4298,0.4297,0.4297,0.4296,0,0.3348,0.3379,0.3384,0.3449,0.3469,0.3487,0.3582,0.3616,0.3743,0.3842,0.3882,0.4051,0.4162,0.4246,0.432,0.4311,0.4229,0.4332,0.422,0.421,0.4068,0.4036,0.3831,0.3714,0.43,0.4299,0.4299,0,0.3297,0.3289,0.3344,0.3348,0.3376,0.3416,0.3447,0.3569,0.3626,0.3839,0.3885,0.4045,0.4143,0.427,0.4287,0.4324,0.4196,0.4219,0.4142,0.4047,0.4017,0.3845,0.3749,0.4051,0.4048,0.4046,0.4045,0,0.3215,0.3236,0.3247,0.3263,0.3286,0.3311,0.3378,0.3421,0.3583,0.3678,0.382,0.3919,0.4103,0.4111,0.4192,0.4195,0.4027,0.4175,0.4105,0.3837,0.3617,0.3512,0.4028,0.4026,0.4028,0.4029,0.403,0.4031,0.3154,0.3144,0.3162,0.3161,0.3185,0.3202,0.3189,0.3283,0.3353,0.3483,0.3658,0.3757,0.3923,0.4029,0.4003,0.3932,0.3885,0.384,0.382,0.3662,0.3494,0.3967,0.3949,0.395,0.3952,0.3953,0.3954,0,0.3057,0.3054,0.3058,0.3046,0.3016,0.3074,0.3123,0.3094,0.3123,0.3297,0.3388,0.3538,0.3591,0.369,0.3739,0.3626,0.3436,0.353,0.3278,0.3209,0.3676,0.3613,0.3485,0.3485,0.3485,0.3485,0.3485,0.3485,0.3007,0.2961,0.2955,0.287,0.286,0.2791,0.279,0.2791,0.2872,0.2928,0.3004,0.3141,0.3398,0.3531,0.3471,0.3388,0.3133,0.2995,0.2952,0.3333,0.336,0.3386,0.3317,0.3129,0.3128,0.236,0.2355,0.2351]},{"header":{"parameterUnit":"m.s-1","parameterCategory":2,"la1":30.2991,"la2":30.254,"lo1":-89.0895,"lo2":-89.0444,"dy":0.0017,"dx":0.0017,"nx":28,"ny":28,"refTime":"2024-03-01T09:00:00:Z","depth":"0","parameterNumber":3,"parameterNumberName":"V-component_of_CURRENTS"},"data":[0,0,0,0,0,0,0,0,0,0,0,0,0,0,0,0,0,0,0,0,0,0,0,0,0,0,0,0,0,0,0,0,0,0,0,0,0,0,0,0,0,0,0,0,0,0,0,0,0,0,0,0,0,0,0,0,0,0,0.015,0.015,0,0.0077,0.0076,0.0074,0.0013,0.0012,0.0012,0.0012,-0.0104,-0.0107,-0.011,0,0,0,0,0,0,0,0,0,0,0,0,0,0.0176,0.0176,0.015,0.015,0.0149,0.0077,0.0075,0.0074,0.0013,0.0012,0.0012,0.0011,-0.0104,-0.0107,-0.011,0,0,0,0,0,0,0,0,0,0,0,0,0,0.0137,0.0176,0.015,0.0112,0.0108,0.0077,0.0075,0.0074,0.0013,0.0012,0.0012,0.0011,-0.0102,-0.0106,-0.011,-0.0125,0,0,-0.0123,-0.0125,0,0,0,0,0,0,0,0,0.0139,0.0136,0.0118,0.0115,0.011,0.0056,0.0042,0.0006,0.0013,0.0045,0.0012,0.0011,-0.0052,-0.006,-0.0077,-0.013,-0.0135,-0.0123,-0.0126,-0.0128,-0.0129,0,0,0,0,0,0,0,0.0142,0.0138,0.0118,0.0118,0.0113,0.0078,0.0072,0.0035,-0.0003,0.0043,0.0039,0.0036,-0.0055,-0.0073,-0.008,-0.0137,-0.0123,-0.0127,-0.0129,-0.0131,-0.0197,-0.0197,0,0,0,0,0,0,0.0162,0.0141,0.012,0.0116,0.0127,0.0078,0.0071,0.0071,-0.0001,-0.0012,0.0037,0.0033,-0.0066,-0.0075,-0.0085,-0.008,-0.0128,-0.0131,-0.0134,-0.0198,-0.0197,-0.0196,0,0,0,0,0,0,0.0162,0.0161,0.0123,0.0129,0.0122,0.0079,0.0079,0.007,0.0059,-0.0005,-0.0017,0.0035,-0.0066,-0.0079,-0.0105,-0.0086,-0.0133,-0.0137,-0.0199,-0.0198,-0.0197,-0.0087,0,0,0,0,0,0,0.0164,0.0161,0.0169,0.0131,0.0123,0.0121,0.008,0.0069,0.0059,0.0054,-0.001,-0.0022,-0.0068,-0.0098,-0.0109,-0.0092,-0.014,-0.02,-0.0198,-0.0197,-0.0091,-0.0082,-0.0074,0,0,0,0,0,0.0165,0.0181,0.017,0.0167,0.0134,0.0123,0.0115,0.008,0.006,0.0065,0.0021,-0.002,-0.0097,-0.01,-0.0113,-0.0098,-0.02,-0.0199,-0.0197,-0.0095,-0.0084,-0.0074,0,0,0,0,0,0,0.0195,0.0176,0.0162,0.0171,0.0156,0.0114,0.0116,0.0091,0.0059,0.0052,-0.001,-0.0024,-0.0044,-0.0084,-0.0086,-0.0114,-0.0156,-0.0157,-0.0074,-0.0064,-0.0055,-0.0029,-0.0144,0,0,0,0,0,0.0208,0.0215,0.019,0.0199,0.0196,0.0158,0.0149,0.0126,0.0093,0.0078,0.0036,-0.0011,-0.0048,-0.0064,-0.0108,-0.0117,-0.0152,-0.0116,-0.0108,-0.01,-0.0088,-0.0122,-0.0115,-0.0191,-0.0191,-0.0191,0,0,0.0221,0.0213,0.0216,0.0206,0.019,0.0197,0.0151,0.0146,0.0151,0.0071,0.0065,0.0014,-0.0046,-0.0061,-0.0073,-0.0089,-0.0096,-0.0098,-0.0091,-0.0083,-0.012,-0.0112,-0.0106,-0.019,-0.019,-0.0191,0,0,0.026,0.0249,0.0271,0.0264,0.0252,0.023,0.0236,0.0203,0.019,0.0174,0.0119,0.009,0.0031,0.0001,-0.0026,0.0007,-0.0054,-0.0013,0.0057,0.0024,0.0031,0.0036,0.001,0.0012,-0.0003,-0.0002,-0.0002,0,0.0278,0.0301,0.0275,0.0295,0.03,0.0254,0.028,0.026,0.0222,0.0221,0.0187,0.0113,0.0063,0.0052,0.0061,0.0028,-0.0003,0.0026,0.0037,0.0041,0.0045,0.0017,0.0017,0.0003,0.0002,0.0002,0.0001,0,0.0332,0.035,0.0365,0.0376,0.0377,0.0391,0.0368,0.0365,0.0338,0.0312,0.0291,0.0223,0.0182,0.0161,0.0118,0.0122,0.0089,0.0049,0.0017,0.0059,0.0027,0.0025,0.0011,0.0009,0.0007,0.0006,0,0,0.0377,0.04,0.0407,0.043,0.0423,0.0433,0.0448,0.0451,0.0471,0.0417,0.0435,0.0365,0.0323,0.0292,0.0235,0.0209,0.0206,0.0149,0.0144,0.0134,0.0137,0.0126,0.0123,0.0165,0.0165,0.0165,0.0109,0,0.0431,0.0491,0.0484,0.054,0.0569,0.0542,0.0565,0.0558,0.0538,0.0542,0.0473,0.0453,0.0375,0.0358,0.0322,0.0235,0.0206,0.0225,0.0088,0.0084,0.0078,0.0122,0.0157,0.011,0.0107,0.0106,0.0106,0,0.0489,0.0523,0.0592,0.0632,0.0644,0.0669,0.0703,0.0716,0.0702,0.0686,0.0652,0.0586,0.0544,0.0464,0.0348,0.0362,0.0263,0.0189,0.0184,0.0136,0.0071,0.0063,0.0107,-0.0075,0.0103,0.0104,0.0104,0,0.0542,0.0598,0.0661,0.0674,0.0709,0.0741,0.0759,0.0764,0.0796,0.078,0.0797,0.071,0.0687,0.0552,0.0395,0.0369,0.0265,0.0204,0.01,0.0098,0.0082,0.0079,-0.0056,0.0119,0.0119,0.0119,0.012,0,0.0602,0.065,0.0695,0.073,0.0811,0.0809,0.0889,0.0891,0.0917,0.098,0.088,0.0909,0.0707,0.0616,0.0447,0.0287,0.0301,0.0128,0.0088,0.0122,0.0123,-0.0075,-0.0176,0.0117,0.0118,0.0118,0.0119,0,0.065,0.0677,0.0753,0.0813,0.084,0.0898,0.0978,0.1032,0.1046,0.113,0.113,0.1063,0.0954,0.0747,0.0541,0.0377,0.0107,0.0136,0.0195,0.0164,-0.0109,-0.0204,-0.0376,-0.0459,0.0016,0.0015,0.0015,0,0.068,0.0726,0.082,0.0874,0.0908,0.0993,0.1056,0.1093,0.1164,0.1239,0.1291,0.1213,0.1195,0.0892,0.0579,0.0293,0.0105,0.012,0.007,-0.0103,-0.0239,-0.0315,-0.0378,0.0091,0.0091,0.0091,0.0092,0,0.0738,0.0773,0.0836,0.0951,0.1032,0.1132,0.1231,0.1311,0.1381,0.147,0.157,0.1564,0.1289,0.1025,0.0619,0.0406,0.0006,0.0114,-0.0082,-0.0195,-0.0269,-0.0374,0.0103,0.0093,0.0093,0.0093,0.0093,0.0093,0.0781,0.0837,0.0925,0.1034,0.1133,0.1268,0.1368,0.1493,0.1644,0.1803,0.1781,0.1836,0.144,0.0901,0.0574,0.0016,-0.0005,-0.0154,-0.0255,-0.0316,-0.0396,0.0093,0.0045,0.0045,0.0044,0.0044,0.0044,0,0.0833,0.0899,0.1001,0.1136,0.1252,0.13,0.1483,0.1605,0.1811,0.1969,0.2068,0.194,0.1434,0.0902,0.0154,-0.0267,-0.0428,-0.0498,-0.0607,-0.0656,-0.0232,-0.0228,-0.0314,-0.0314,-0.0314,-0.0314,-0.0314,-0.0313,0.0861,0.0962,0.1018,0.1215,0.1315,0.1491,0.1607,0.1805,0.1967,0.2187,0.2264,0.2272,0.1888,0.0532,-0.041,-0.0638,-0.0926,-0.0986,-0.1154,-0.0877,-0.0853,-0.083,-0.0851,-0.1067,-0.1068,-0.1518,-0.1522,-0.1526]}],[{"header":{"parameterUnit":"m.s-1","parameterCategory":2,"la1":30.2991,"la2":30.254,"lo1":-89.0895,"lo2":-89.0444,"dy":0.0017,"dx":0.0017,"nx":28,"ny":28,"refTime":"2024-03-01T09:00:00:Z","depth":"2","parameterNumber":2,"parameterNumberName":"U-component_of_CURRENTS"},"data":[0,0,0,0,0,0,0,0,0,0,0,0,0,0,0,0,0,0,0,0,0,0,0,0,0,0,0,0,0,0,0,0,0,0,0,0,0,0,0,0,0,0,0,0,0,0,0,0,0,0,0,0,0,0,0,0,0,0,0.2779,0.278,0,0.2803,0.2802,0.2802,0.2824,0.2825,0.2826,0.2826,0.2836,0.2835,0.2835,0,0,0,0,0,0,0,0,0,0,0,0,0,0.2725,0.2725,0.2779,0.278,0.2781,0.2803,0.2802,0.2802,0.2824,0.2825,0.2826,0.2827,0.2836,0.2835,0.2834,0,0,0,0,0,0,0,0,0,0,0,0,0,0.2742,0.2725,0.2779,0.2799,0.2802,0.2803,0.2802,0.2802,0.2823,0.2825,0.2826,0.2827,0.2836,0.2835,0.2834,0.2803,0,0,0.2832,0.2831,0,0,0,0,0,0,0,0,0.2741,0.2743,0.2795,0.2798,0.2801,0.2817,0.2787,0.2804,0.2823,0.2808,0.2826,0.2828,0.2831,0.2831,0.2824,0.2804,0.2804,0.2832,0.2831,0.2831,0.2831,0,0,0,0,0,0,0,0.274,0.2742,0.2782,0.2796,0.28,0.2798,0.2801,0.279,0.2807,0.281,0.2813,0.2825,0.2832,0.2824,0.2824,0.2804,0.2832,0.2831,0.2831,0.283,0.2867,0.2868,0,0,0,0,0,0,0.275,0.2741,0.2781,0.2783,0.2781,0.2798,0.2802,0.2805,0.2808,0.2811,0.2824,0.2827,0.2825,0.2825,0.2824,0.2868,0.2831,0.283,0.283,0.2865,0.2867,0.2868,0,0,0,0,0,0,0.2749,0.2753,0.278,0.2768,0.2773,0.2799,0.2802,0.2805,0.2818,0.282,0.2822,0.2837,0.2826,0.2826,0.2844,0.2866,0.283,0.2829,0.2863,0.2866,0.2868,0.2904,0,0,0,0,0,0,0.2747,0.2752,0.2758,0.2769,0.2774,0.28,0.2802,0.2805,0.2825,0.2829,0.2831,0.2832,0.2827,0.2845,0.2843,0.2864,0.2828,0.2861,0.2864,0.2867,0.2901,0.2907,0.2912,0,0,0,0,0,0.2744,0.2752,0.2758,0.2763,0.2781,0.2801,0.2803,0.2821,0.2825,0.2834,0.2844,0.2833,0.2862,0.2845,0.2842,0.2864,0.286,0.2864,0.2867,0.2898,0.2906,0.2912,0,0,0,0,0,0,0.2733,0.2756,0.2762,0.2777,0.2797,0.2808,0.282,0.2828,0.2838,0.2848,0.2841,0.2843,0.2873,0.2862,0.2844,0.2886,0.2863,0.2866,0.2888,0.2895,0.2901,0.2925,0.2828,0,0,0,0,0,0.2733,0.2744,0.2767,0.278,0.2791,0.2804,0.2815,0.2831,0.2844,0.2851,0.2854,0.2864,0.2878,0.2883,0.2892,0.29,0.2912,0.2917,0.2923,0.2928,0.2949,0.2982,0.2993,0.2879,0.2879,0.2879,0,0,0.2731,0.2748,0.2753,0.2778,0.2791,0.2811,0.2813,0.2841,0.2862,0.2848,0.2875,0.2883,0.2888,0.2912,0.2923,0.2907,0.2967,0.2932,0.2936,0.2954,0.2987,0.2998,0.3008,0.2882,0.2881,0.2881,0,0,0.2736,0.275,0.2761,0.2781,0.2815,0.2827,0.2839,0.2862,0.288,0.29,0.291,0.2938,0.2937,0.2959,0.2965,0.3006,0.3001,0.3007,0.3047,0.3079,0.3089,0.3098,0.3125,0.3136,0.3004,0.3004,0.3004,0,0.2734,0.2749,0.2768,0.2789,0.2809,0.2836,0.2856,0.2877,0.2905,0.2925,0.292,0.2962,0.2965,0.3008,0.3033,0.302,0.3036,0.3015,0.3087,0.3095,0.3104,0.313,0.3141,0.3006,0.3006,0.3006,0.3005,0,0.2746,0.2763,0.2775,0.2807,0.2832,0.2856,0.2893,0.2924,0.2943,0.2963,0.3014,0.3024,0.3053,0.3059,0.3058,0.3122,0.3114,0.3092,0.3066,0.3117,0.3141,0.3153,0.3009,0.3008,0.3008,0.3007,0,0,0.2723,0.2771,0.2776,0.2792,0.2844,0.2862,0.2914,0.2961,0.2998,0.3029,0.3073,0.3112,0.3128,0.314,0.3146,0.3178,0.3248,0.3166,0.3167,0.319,0.3323,0.3279,0.3287,0.3235,0.3238,0.3239,0.3315,0,0.2723,0.2755,0.2786,0.282,0.2836,0.2888,0.293,0.2984,0.3026,0.3077,0.3116,0.3157,0.3155,0.3176,0.3212,0.3247,0.328,0.323,0.3275,0.3277,0.3228,0.3299,0.3037,0.308,0.3326,0.3328,0.3329,0,0.2719,0.2742,0.2771,0.2823,0.2837,0.2869,0.2946,0.299,0.3079,0.3115,0.3176,0.3206,0.3283,0.3258,0.3351,0.3319,0.3336,0.335,0.3352,0.3311,0.3254,0.307,0.3091,0.3348,0.3346,0.3345,0.3344,0,0.2678,0.2729,0.2749,0.2768,0.2835,0.2869,0.2913,0.3001,0.305,0.315,0.32,0.3275,0.3331,0.3369,0.3421,0.3391,0.3511,0.346,0.3434,0.343,0.3218,0.3192,0.3521,0.3521,0.3521,0.3521,0.3521,0,0.2655,0.267,0.2734,0.2743,0.2782,0.2845,0.2901,0.2968,0.3065,0.3128,0.3219,0.3284,0.3366,0.3441,0.3455,0.35,0.3541,0.3471,0.3458,0.3223,0.3198,0.3435,0.3424,0.3524,0.3523,0.3522,0.3522,0,0.26,0.264,0.2666,0.2737,0.2761,0.2792,0.2887,0.2926,0.3042,0.3134,0.3173,0.332,0.3423,0.3493,0.3571,0.355,0.3581,0.3577,0.3304,0.3259,0.3465,0.3455,0.3552,0.3551,0.355,0.355,0.355,0,0.2571,0.2579,0.2648,0.2661,0.2693,0.2748,0.2783,0.2898,0.2952,0.3144,0.3183,0.3337,0.3415,0.3536,0.353,0.3556,0.3601,0.3316,0.321,0.3496,0.3474,0.3465,0.3456,0.2937,0.2931,0.2927,0.2923,0,0.2513,0.2544,0.2566,0.2597,0.2631,0.2664,0.2734,0.2776,0.292,0.3009,0.3135,0.3219,0.3367,0.3289,0.3354,0.3324,0.329,0.3229,0.3603,0.2979,0.2925,0.2901,0.291,0.2884,0.2888,0.2891,0.2893,0.2895,0.2469,0.2469,0.2499,0.2516,0.2548,0.2564,0.2555,0.2642,0.2709,0.2814,0.2981,0.3022,0.3088,0.3054,0.2972,0.2913,0.3135,0.2977,0.2986,0.3002,0.2926,0.2875,0.2811,0.2814,0.2817,0.282,0.2822,0,0.239,0.2396,0.241,0.2415,0.2393,0.2457,0.2496,0.2462,0.2482,0.262,0.2701,0.2546,0.253,0.2583,0.2444,0.2461,0.2392,0.2347,0.2222,0.2266,0.2305,0.2188,0.1879,0.1876,0.1872,0.1869,0,0,0.235,0.2318,0.2316,0.2248,0.2253,0.219,0.2183,0.2166,0.2214,0.2207,0.2217,0.2433,0.2535,0.2172,0.2138,0.1976,0.2091,0.1899,0.2668,0.2567,0.26,0.2699,0.2576,0,0,0,0,0]},{"header":{"parameterUnit":"m.s-1","parameterCategory":2,"la1":30.2991,"la2":30.254,"lo1":-89.0895,"lo2":-89.0444,"dy":0.0017,"dx":0.0017,"nx":28,"ny":28,"refTime":"2024-03-01T09:00:00:Z","depth":"2","parameterNumber":3,"parameterNumberName":"V-component_of_CURRENTS"},"data":[0,0,0,0,0,0,0,0,0,0,0,0,0,0,0,0,0,0,0,0,0,0,0,0,0,0,0,0,0,0,0,0,0,0,0,0,0,0,0,0,0,0,0,0,0,0,0,0,0,0,0,0,0,0,0,0,0,0,0.0226,0.0226,0,0.017,0.0169,0.0168,0.0126,0.0126,0.0126,0.0126,0.0045,0.0043,0.0041,0,0,0,0,0,0,0,0,0,0,0,0,0,0.024,0.024,0.0226,0.0226,0.0225,0.017,0.0169,0.0168,0.0126,0.0126,0.0126,0.0125,0.0046,0.0043,0.0041,0,0,0,0,0,0,0,0,0,0,0,0,0,0.0212,0.024,0.0226,0.0199,0.0196,0.017,0.0169,0.0168,0.0126,0.0126,0.0126,0.0125,0.0046,0.0043,0.0041,0.0028,0,0,0.0032,0.003,0,0,0,0,0,0,0,0,0.0214,0.0212,0.0204,0.0201,0.0198,0.0156,0.0144,0.0121,0.0126,0.0151,0.0126,0.0125,0.0081,0.0076,0.0063,0.0025,0.0021,0.0031,0.0029,0.0028,0.0027,0,0,0,0,0,0,0,0.0216,0.0213,0.0202,0.0203,0.0199,0.017,0.0166,0.0139,0.0116,0.0148,0.0146,0.0143,0.0079,0.0066,0.0061,0.002,0.0031,0.0029,0.0027,0.0026,-0.0035,-0.0035,0,0,0,0,0,0,0.023,0.0216,0.0204,0.02,0.0207,0.0171,0.0166,0.0168,0.0117,0.011,0.0143,0.0141,0.0071,0.0064,0.0058,0.0052,0.0028,0.0025,0.0024,-0.0035,-0.0035,-0.0035,0,0,0,0,0,0,0.0231,0.023,0.0206,0.0208,0.0203,0.0171,0.0174,0.0167,0.0158,0.0114,0.0105,0.0141,0.0071,0.0062,0.004,0.0048,0.0024,0.0021,-0.0035,-0.0035,-0.0035,0.0032,0,0,0,0,0,0,0.0232,0.0231,0.0237,0.0209,0.0204,0.0199,0.0174,0.0167,0.0157,0.0154,0.0109,0.0101,0.007,0.0045,0.0037,0.0043,0.0019,-0.0035,-0.0035,-0.0035,0.003,0.0035,0.0039,0,0,0,0,0,0.0232,0.0244,0.0237,0.0236,0.0213,0.02,0.0194,0.0168,0.0158,0.0158,0.0127,0.0102,0.0041,0.0043,0.0034,0.0039,-0.0035,-0.0035,-0.0035,0.0028,0.0034,0.0039,0,0,0,0,0,0,0.0251,0.0241,0.0232,0.024,0.0225,0.0194,0.0193,0.0175,0.0151,0.0149,0.0105,0.0095,0.0078,0.0049,0.0052,0.0022,-0.0002,-0.0003,0.0049,0.0054,0.0058,0.008,0.0017,0,0,0,0,0,0.026,0.0267,0.0249,0.0255,0.0253,0.0225,0.0216,0.02,0.0175,0.0164,0.0133,0.0099,0.0071,0.0057,0.0027,0.0013,-0.0017,0.0009,0.0014,0.0018,0.0029,-0.0013,-0.0011,-0.0033,-0.0033,-0.0033,0,0,0.0269,0.0264,0.0268,0.0259,0.0247,0.025,0.0219,0.0213,0.0213,0.0159,0.0151,0.0115,0.0071,0.0054,0.0044,0.0032,0.0009,0.0018,0.0022,0.0031,-0.0012,-0.001,-0.0008,-0.0033,-0.0033,-0.0033,0,0,0.0293,0.0288,0.0304,0.0297,0.0287,0.0271,0.0275,0.0249,0.0237,0.0222,0.0185,0.0156,0.0114,0.0085,0.0065,0.0076,0.0035,0.0065,0.0106,0.0066,0.0068,0.0069,0.0039,0.0037,0.0067,0.0068,0.0068,0,0.0303,0.0323,0.0305,0.0317,0.0321,0.0287,0.0305,0.0287,0.0255,0.0251,0.0229,0.0169,0.0129,0.011,0.0112,0.0088,0.0062,0.0091,0.0073,0.0073,0.0073,0.0042,0.0039,0.0071,0.007,0.007,0.007,0,0.0339,0.0353,0.0363,0.0372,0.0371,0.038,0.036,0.0355,0.0335,0.0312,0.0289,0.0232,0.0198,0.0177,0.0147,0.0132,0.0113,0.0084,0.0063,0.008,0.0046,0.0042,0.0075,0.0074,0.0073,0.0073,0,0,0.0369,0.0386,0.0391,0.0411,0.0404,0.0412,0.0416,0.0413,0.0425,0.0377,0.0383,0.0321,0.0288,0.0262,0.0217,0.018,0.0153,0.014,0.0136,0.0119,0.0073,0.0057,0.0051,0.0121,0.0121,0.0121,0.0051,0,0.0405,0.0448,0.0444,0.0486,0.0509,0.0489,0.0501,0.049,0.047,0.0464,0.04,0.0382,0.032,0.0308,0.0261,0.0183,0.0144,0.0175,0.0052,0.0049,0.0039,0.0046,0.0076,0.0016,0.0046,0.0045,0.0045,0,0.0445,0.0471,0.0523,0.0557,0.0567,0.0585,0.061,0.0615,0.0589,0.0573,0.0535,0.0481,0.0426,0.0369,0.0245,0.0269,0.0181,0.0113,0.0108,0.0069,0.0025,0.0001,0.0006,0.0037,0.0037,0.0038,0.0039,0,0.0487,0.0529,0.0579,0.0589,0.0617,0.0642,0.0657,0.0651,0.0673,0.0645,0.0654,0.0565,0.0536,0.0412,0.0268,0.0256,0.0131,0.009,-0.0007,-0.0009,-0.0019,-0.0021,0.0001,0.0001,0.0001,0.0001,0.0001,0,0.0532,0.057,0.0607,0.0635,0.0702,0.07,0.0763,0.076,0.077,0.0813,0.0718,0.0728,0.0546,0.0449,0.0302,0.0143,0.0151,0.0007,-0.0028,0.0005,0.0006,-0.0007,-0.0006,-0.0002,-0.0001,-0.0,0.0,0,0.0571,0.0591,0.0653,0.0703,0.0727,0.0776,0.0843,0.0883,0.0883,0.0937,0.0935,0.0852,0.0729,0.0541,0.0344,0.0202,0.0039,-0.0022,0.0035,0.0008,-0.0083,-0.0078,-0.0138,-0.014,-0.014,-0.0141,-0.0142,0,0.0594,0.0632,0.0711,0.0757,0.0787,0.0859,0.0912,0.0939,0.0993,0.1023,0.1058,0.0958,0.091,0.0612,0.0341,0.0083,0.0043,-0.0065,-0.0093,-0.0069,-0.0097,-0.0091,-0.0086,-0.0082,-0.0082,-0.0082,-0.0082,0,0.0641,0.0671,0.0724,0.0822,0.0893,0.0979,0.1061,0.1124,0.117,0.122,0.1264,0.1227,0.0954,0.0692,0.0331,0.0158,-0.0025,-0.0076,-0.0069,-0.0047,-0.0021,-0.0046,-0.0042,-0.0083,-0.0083,-0.0083,-0.0083,-0.0083,0.0678,0.0723,0.0798,0.0892,0.0978,0.109,0.1171,0.1265,0.1371,0.1456,0.1417,0.1369,0.1072,0.0613,0.0297,-0.0037,-0.002,-0.014,-0.0137,-0.0135,-0.0113,-0.0089,-0.0159,-0.0159,-0.016,-0.016,-0.016,0,0.072,0.0774,0.086,0.0974,0.1074,0.1118,0.1265,0.1349,0.1487,0.1556,0.1591,0.1313,0.1014,0.0664,0.0172,-0.0117,-0.0136,-0.0209,-0.0172,-0.0168,-0.0165,-0.0143,-0.0199,-0.02,-0.0201,-0.0202,0,0,0.0742,0.0825,0.0869,0.1034,0.1121,0.1263,0.1354,0.1482,0.1567,0.1636,0.1612,0.1547,0.1125,0.0761,0.0366,0.0078,0.0024,0.0026,0.0093,0.0189,0.0195,-0.0087,-0.0044,0,0,0,0,0]}],[{"header":{"parameterUnit":"m.s-1","parameterCategory":2,"la1":30.2991,"la2":30.254,"lo1":-89.0895,"lo2":-89.0444,"dy":0.0017,"dx":0.0017,"nx":28,"ny":28,"refTime":"2024-03-01T09:00:00:Z","depth":"4","parameterNumber":2,"parameterNumberName":"U-component_of_CURRENTS"},"data":[0,0,0,0,0,0,0,0,0,0,0,0,0,0,0,0,0,0,0,0,0,0,0,0,0,0,0,0,0,0,0,0,0,0,0,0,0,0,0,0,0,0,0,0,0,0,0,0,0,0,0,0,0,0,0,0,0,0,0.1738,0.1739,0,0.1796,0.1797,0.1797,0.1847,0.1848,0.1849,0.1849,0.1912,0.1913,0.1914,0,0,0,0,0,0,0,0,0,0,0,0,0,0.1677,0.1678,0.1738,0.1739,0.174,0.1796,0.1797,0.1797,0.1847,0.1848,0.1849,0.1849,0.1912,0.1913,0.1914,0,0,0,0,0,0,0,0,0,0,0,0,0,0.1716,0.1678,0.1738,0.1772,0.1775,0.1796,0.1797,0.1798,0.1847,0.1848,0.1849,0.185,0.1911,0.1913,0.1915,0.1907,0,0,0.192,0.1921,0,0,0,0,0,0,0,0,0.1714,0.1718,0.1766,0.177,0.1774,0.1816,0.1798,0.1835,0.1847,0.182,0.1849,0.185,0.188,0.1884,0.1893,0.191,0.1913,0.192,0.1921,0.1922,0.1922,0,0,0,0,0,0,0,0.1711,0.1716,0.1761,0.1767,0.1771,0.1786,0.1792,0.1805,0.1844,0.1822,0.1826,0.1832,0.1882,0.1891,0.1894,0.1914,0.192,0.1921,0.1922,0.1923,0.2034,0.2036,0,0,0,0,0,0,0.1703,0.1713,0.1759,0.1763,0.1746,0.1786,0.1793,0.1801,0.1844,0.1851,0.1832,0.1835,0.1888,0.1892,0.1897,0.1983,0.1922,0.1923,0.1924,0.2032,0.2035,0.2037,0,0,0,0,0,0,0.1702,0.1707,0.1757,0.1739,0.1747,0.1786,0.1795,0.1802,0.185,0.1851,0.1859,0.1877,0.1888,0.1894,0.1943,0.1983,0.1924,0.1926,0.203,0.2033,0.2036,0.2097,0,0,0,0,0,0,0.17,0.1706,0.1729,0.1739,0.1748,0.1791,0.1794,0.1802,0.185,0.1856,0.1892,0.1896,0.189,0.194,0.1944,0.1984,0.1927,0.2028,0.2031,0.2035,0.2092,0.2101,0.2109,0,0,0,0,0,0.1697,0.1716,0.1729,0.1736,0.1771,0.1793,0.1799,0.1829,0.1852,0.1876,0.1905,0.1897,0.1967,0.1943,0.1948,0.1988,0.2026,0.203,0.2035,0.2088,0.21,0.2109,0,0,0,0,0,0,0.1702,0.1723,0.1738,0.1764,0.1789,0.1802,0.1835,0.1853,0.1895,0.1915,0.1918,0.1924,0.1984,0.1979,0.1953,0.2033,0.1997,0.2002,0.2036,0.2047,0.2055,0.2069,0.1928,0,0,0,0,0,0.1713,0.1737,0.1754,0.1781,0.1799,0.1826,0.1848,0.1868,0.1896,0.1918,0.1942,0.1971,0.1998,0.2018,0.2038,0.2078,0.2081,0.211,0.2118,0.2125,0.2141,0.2173,0.2185,0.2051,0.2051,0.2051,0,0,0.1722,0.1739,0.1754,0.1786,0.1813,0.184,0.1843,0.1888,0.1921,0.1916,0.1986,0.2006,0.2017,0.2065,0.2091,0.207,0.2167,0.2131,0.2137,0.2149,0.2179,0.2192,0.2203,0.2054,0.2054,0.2053,0,0,0.1741,0.1773,0.1797,0.1821,0.1865,0.1879,0.1901,0.1938,0.1974,0.2025,0.2039,0.2086,0.2122,0.2141,0.2152,0.2221,0.2213,0.2234,0.2285,0.2316,0.2327,0.2337,0.2359,0.2371,0.2234,0.2234,0.2235,0,0.1757,0.1783,0.1809,0.1838,0.1865,0.1901,0.1933,0.1969,0.202,0.2053,0.2059,0.2142,0.2157,0.2213,0.2244,0.2241,0.2255,0.2242,0.2326,0.2336,0.2345,0.2366,0.2377,0.2238,0.2238,0.2237,0.2237,0,0.1778,0.1816,0.1837,0.1884,0.1917,0.1953,0.1996,0.2049,0.2094,0.2121,0.2203,0.2227,0.2276,0.2291,0.2292,0.237,0.2359,0.2334,0.2297,0.2362,0.238,0.2391,0.2243,0.2242,0.2241,0.224,0,0,0.1764,0.1838,0.1849,0.1879,0.1946,0.1969,0.2042,0.2102,0.2156,0.2215,0.228,0.2343,0.237,0.2387,0.24,0.2434,0.2514,0.2424,0.2424,0.2441,0.2588,0.243,0.2427,0.2505,0.2508,0.2509,0.2574,0,0.1778,0.1831,0.1869,0.1931,0.196,0.2023,0.2081,0.2147,0.2207,0.228,0.2331,0.2397,0.2401,0.2439,0.2479,0.251,0.2546,0.2499,0.2528,0.2529,0.2375,0.2435,0.2517,0.2582,0.2585,0.2587,0.2588,0,0.1778,0.1816,0.1876,0.1953,0.1975,0.2026,0.2127,0.2184,0.2289,0.2339,0.2418,0.2458,0.2547,0.2527,0.2619,0.2593,0.2609,0.2618,0.262,0.246,0.2391,0.2505,0.2607,0.2606,0.2605,0.2603,0.2602,0,0.1734,0.1817,0.1867,0.1894,0.1988,0.2045,0.2108,0.2212,0.2271,0.2393,0.2448,0.2538,0.2605,0.2643,0.2688,0.2666,0.2767,0.2723,0.2594,0.2583,0.2677,0.2666,0.2782,0.2782,0.2782,0.2782,0.2782,0,0.1706,0.175,0.186,0.1884,0.1956,0.2036,0.2126,0.2203,0.2317,0.2382,0.2487,0.2542,0.2643,0.2706,0.272,0.2696,0.2794,0.2619,0.2592,0.2702,0.2693,0.2685,0.2673,0.2784,0.2784,0.2783,0.2783,0,0.1642,0.1714,0.1777,0.1894,0.1937,0.1995,0.213,0.218,0.2311,0.2404,0.2451,0.2581,0.2658,0.273,0.2798,0.2723,0.2717,0.2683,0.2816,0.2794,0.2505,0.2496,0.2531,0.2526,0.2522,0.2518,0.2515,0,0.1607,0.1637,0.1772,0.1812,0.1873,0.1972,0.2029,0.2166,0.2219,0.2398,0.2424,0.2559,0.2627,0.2599,0.2682,0.2691,0.266,0.2634,0.2552,0.251,0.2482,0.2479,0.2475,0.2508,0.2507,0.2506,0.2505,0,0.1539,0.161,0.1661,0.1746,0.1819,0.1881,0.1981,0.2005,0.2157,0.2297,0.2339,0.2374,0.2458,0.2495,0.2532,0.2528,0.2632,0.2589,0.2597,0.2519,0.2483,0.2459,0.246,0.2491,0.2493,0.2494,0.2495,0,0.1496,0.1515,0.1597,0.1655,0.1737,0.176,0.1828,0.1886,0.1955,0.2151,0.2159,0.2299,0.2432,0.2412,0.244,0.2434,0.2386,0.2289,0.2311,0.2328,0.223,0.2153,0.2047,0,0,0,0,0,0.1437,0.1441,0.149,0.1539,0.1612,0.166,0.1774,0.1843,0.1995,0.1971,0.2059,0.2122,0.2161,0.2229,0.2181,0.2351,0.2399,0.2283,0.2299,0.241,0.2427,0.233,0,0,0,0,0,0,0.1394,0.1438,0.1449,0.1427,0.1437,0.1498,0.1565,0.1669,0.1667,0.1831,0.1866,0.1989,0.2063,0.2169,0.2138,0.216,0.2124,0.2376,0.237,0.2401,0.2416,0.2429,0.2335,0,0,0,0,0]},{"header":{"parameterUnit":"m.s-1","parameterCategory":2,"la1":30.2991,"la2":30.254,"lo1":-89.0895,"lo2":-89.0444,"dy":0.0017,"dx":0.0017,"nx":28,"ny":28,"refTime":"2024-03-01T09:00:00:Z","depth":"4","parameterNumber":3,"parameterNumberName":"V-component_of_CURRENTS"},"data":[0,0,0,0,0,0,0,0,0,0,0,0,0,0,0,0,0,0,0,0,0,0,0,0,0,0,0,0,0,0,0,0,0,0,0,0,0,0,0,0,0,0,0,0,0,0,0,0,0,0,0,0,0,0,0,0,0,0,0.0199,0.0199,0,0.0166,0.0165,0.0165,0.0144,0.0144,0.0144,0.0144,0.0092,0.0091,0.009,0,0,0,0,0,0,0,0,0,0,0,0,0,0.0202,0.0203,0.0199,0.0199,0.0198,0.0166,0.0165,0.0165,0.0144,0.0144,0.0144,0.0144,0.0093,0.0091,0.0089,0,0,0,0,0,0,0,0,0,0,0,0,0,0.0187,0.0203,0.0199,0.0185,0.0184,0.0166,0.0165,0.0164,0.0144,0.0144,0.0144,0.0144,0.0093,0.0091,0.0089,0.0075,0,0,0.0083,0.0082,0,0,0,0,0,0,0,0,0.0188,0.0187,0.0188,0.0186,0.0185,0.016,0.0147,0.0134,0.0144,0.0158,0.0144,0.0144,0.0114,0.0111,0.0102,0.0073,0.0071,0.0083,0.0081,0.008,0.008,0,0,0,0,0,0,0,0.0189,0.0188,0.0184,0.0187,0.0186,0.0167,0.0165,0.0144,0.0135,0.0157,0.0155,0.0154,0.0113,0.0104,0.0101,0.007,0.0083,0.0081,0.0079,0.0079,0.0032,0.0032,0,0,0,0,0,0,0.0198,0.0189,0.0185,0.0183,0.0188,0.0167,0.0164,0.0167,0.0135,0.0131,0.0154,0.0153,0.0108,0.0103,0.0099,0.0095,0.008,0.0078,0.0077,0.0032,0.0032,0.0032,0,0,0,0,0,0,0.0199,0.0198,0.0187,0.0186,0.0184,0.0167,0.017,0.0166,0.0163,0.0134,0.0129,0.0155,0.0108,0.0102,0.0088,0.0092,0.0077,0.0076,0.0032,0.0032,0.0032,0.0078,0,0,0,0,0,0,0.0199,0.0199,0.0205,0.0187,0.0184,0.0183,0.017,0.0166,0.0162,0.0161,0.0133,0.0128,0.0107,0.0091,0.0086,0.0089,0.0074,0.0032,0.0032,0.0032,0.0076,0.008,0.0082,0,0,0,0,0,0.0199,0.0208,0.0206,0.0205,0.0193,0.0184,0.0181,0.0167,0.0163,0.0164,0.0145,0.0129,0.0087,0.009,0.0083,0.0086,0.0032,0.0032,0.0032,0.0075,0.0079,0.0082,0,0,0,0,0,0,0.0212,0.0207,0.0203,0.0211,0.0202,0.0181,0.0183,0.0173,0.0158,0.0159,0.013,0.0124,0.0113,0.0092,0.0095,0.0072,0.0056,0.0055,0.0091,0.0095,0.0098,0.0116,0.0072,0,0,0,0,0,0.0218,0.0226,0.0214,0.022,0.022,0.0203,0.0198,0.019,0.0174,0.0168,0.0149,0.0126,0.0106,0.0096,0.0076,0.0064,0.004,0.0061,0.0064,0.0066,0.0076,0.0038,0.0038,0.0032,0.0032,0.0032,0,0,0.0225,0.0224,0.0228,0.0224,0.0218,0.0221,0.02,0.0199,0.0201,0.0165,0.0162,0.0137,0.0106,0.0093,0.0086,0.0078,0.0055,0.0066,0.0069,0.0077,0.0038,0.0038,0.0039,0.0032,0.0032,0.0032,0,0,0.0243,0.0243,0.0255,0.0252,0.0247,0.0238,0.0241,0.0225,0.0219,0.0211,0.0185,0.0165,0.0136,0.0114,0.0098,0.0104,0.0072,0.0097,0.0126,0.0089,0.0089,0.0089,0.0059,0.0056,0.0098,0.0098,0.0098,0,0.0251,0.0266,0.0256,0.0266,0.0271,0.0249,0.0264,0.0252,0.0233,0.0231,0.0218,0.0175,0.0146,0.0129,0.013,0.0112,0.0089,0.0117,0.0093,0.0093,0.0092,0.0061,0.0057,0.01,0.01,0.0099,0.0099,0,0.0275,0.0289,0.0297,0.0306,0.0308,0.0316,0.0304,0.0302,0.0292,0.0276,0.026,0.0218,0.0194,0.0177,0.0156,0.0138,0.0123,0.0103,0.0087,0.0095,0.0062,0.0058,0.0103,0.0102,0.0102,0.0101,0,0,0.0294,0.0312,0.0317,0.0334,0.0333,0.034,0.0345,0.0345,0.0355,0.0322,0.0327,0.028,0.0257,0.0238,0.0204,0.017,0.0139,0.014,0.0137,0.0117,0.0063,0.0053,0.0046,0.0114,0.0114,0.0113,0.0043,0,0.0319,0.0352,0.0353,0.0389,0.0407,0.0398,0.0408,0.0403,0.039,0.0386,0.0337,0.0326,0.028,0.0273,0.023,0.0165,0.0128,0.0161,0.0053,0.005,0.0045,0.0041,0.0112,0.0039,0.0038,0.0037,0.0036,0,0.0344,0.0366,0.0409,0.0442,0.0451,0.047,0.0493,0.0499,0.048,0.047,0.0441,0.0401,0.0353,0.0313,0.0202,0.0226,0.0153,0.0096,0.0091,0.0065,0.0031,0.0027,0.0027,0.0028,0.0028,0.0029,0.0029,0,0.037,0.0407,0.0449,0.0459,0.0488,0.0514,0.053,0.0528,0.0547,0.0527,0.0534,0.0461,0.0436,0.0333,0.0212,0.0207,0.0088,0.0062,-0.0017,-0.0019,-0.0009,-0.0008,-0.0017,-0.0017,-0.0017,-0.0017,-0.0016,0,0.0396,0.0429,0.0471,0.0493,0.0553,0.0557,0.0612,0.0614,0.0625,0.0654,0.0585,0.0583,0.0441,0.0353,0.0233,0.0097,0.0098,-0.0009,-0.0038,0.0012,0.0016,-0.0012,-0.0011,-0.0019,-0.0019,-0.0018,-0.0018,0,0.0415,0.0438,0.0492,0.0543,0.0569,0.0613,0.0679,0.0709,0.0714,0.0751,0.0751,0.0675,0.0561,0.041,0.0241,0.0135,-0.0002,-0.0053,0.0022,-0.0002,-0.0089,-0.0085,-0.0146,-0.0147,-0.0148,-0.0149,-0.0149,0,0.0426,0.0457,0.0536,0.0578,0.061,0.0678,0.0724,0.0755,0.0793,0.0806,0.0825,0.0734,0.0663,0.0424,0.0252,0.0021,-0.0017,-0.0091,-0.0101,-0.008,-0.0103,-0.0097,-0.0091,-0.015,-0.0151,-0.0151,-0.0151,0,0.0449,0.0482,0.0528,0.0617,0.0683,0.0758,0.083,0.0866,0.0903,0.0909,0.0889,0.0764,0.0635,0.0434,0.0255,0.0086,-0.0046,-0.01,-0.01,-0.011,-0.0086,-0.0106,-0.01,-0.0154,-0.0153,-0.0153,-0.0153,0,0.047,0.0505,0.0571,0.0651,0.0736,0.0817,0.0853,0.0901,0.094,0.0954,0.0944,0.0802,0.072,0.0467,0.0302,0.0134,0.0084,0.002,0.0013,0.0014,0.0073,0.0128,0.0104,0,0,0,0,0,0.0484,0.0525,0.0597,0.0685,0.0771,0.0826,0.0915,0.0942,0.0983,0.0978,0.0966,0.0846,0.0604,0.0497,0.0329,0.0268,0.0044,0.0062,-0.0036,-0.0169,-0.0166,-0.0125,0,0,0,0,0,0,0.0492,0.0558,0.0594,0.0703,0.0767,0.0866,0.0927,0.0954,0.0953,0.0966,0.0841,0.0791,0.0554,0.0702,0.0321,0.0271,0.0181,-0.0046,-0.0051,-0.0171,-0.0168,-0.0166,-0.0122,0,0,0,0,0]}]]